Log in

Login to your account

Username *
Password *
Remember Me

METAR/TAF de Chambéry

[source: ADDS]
METAR / TAF
LFLB 011530Z AUTO 20011KT 160V250 9999 -DZ FEW010 BKN042 OVC050 12/11 Q1022 NOSIG =
TAF LFLB 011400Z 0115/0215 19008KT 9999 FEW009 BKN030 TEMPO 0115/0123 6000 -RA PROB30 TEMPO 0123/0206 1500 BCFG BECMG 0208/0210 34005KT

SR / SS: 05:34 / 17:17 UTC (Lever/Coucher du soleil le 2022-10-01)

 

Webcam de l'Aéroclub - Parking Lima et SW (réactualisation : 5min)

Cliquer ici pour une animation sur les 3 dernières heures / Cliquer sur l'image pour l'agrandir dans une nouvelle fenêtre

 

Webcam de l'Aéroclub - Manche à air et WA (réactualisation : 5min)

Cliquer ici pour une animation sur les 3 dernières heures / Cliquer sur l'image pour l'agrandir dans une nouvelle fenêtre

 

 

Webcams Tierces :

 

Webcam Belvédère du Revard - 360-SW-WA-EY-NL / 4955ft

Webcam Décollage parapente Pragondran - WA-NL / 2970ft

Webcam Bourget du Lac - 360-WA-EY

Webcam port d'Aix les Bains - 360

Webcam Belvédère d'Ontex- Vers l'est - EY / 1985ft

Webcam Belvédère de la Chambotte - Vers l'Ouest - WA-NL / 2200ft

Webcam port de Chatillon - 360-NL

Webcam La Motte Servolex - Vers l'Est - Croix du Nivolet / 1065ft

Webcam Aérodrome de Challes - LFLE - Vers l'Est - Mont St Michel

JSN Boot template designed by JoomlaShine.com